O3B MPOWER F1

Last updated on Sat Jul 18 2026 00:03:21 GMT+0000 (Coordinated Universal Time)

1 54755U 22174A 26198.63357034 -.00000025 00000+0 00000+0 0 9995 2 54755 0.0490 339.2557 0006652 147.3999 65.6287 5.00114714 66881
UTC large
Height (km)
Speed (km/s)
/
Latitude / Longitude
Inclination (degrees)
Orbital Period (minutes)
Azimuth
Elevation
Range (km)
Doppler Factor

Next 0 passes for location: London (51.5072 / 0.1276)

No passes found over London.
O3B MPOWER F1